[[{"header":{"parameterUnit":"m.s-1","parameterCategory":1,"la1":30.2991,"la2":30.254,"lo1":-89.0895,"lo2":-89.0444,"dy":0.0017,"dx":0.0017,"nx":28,"ny":28,"refTime":"2025-03-22T03:00:00:Z","depth":0,"parameterNumber":2,"parameterNumberName":"U-component_of_WINDS"},"data":[0,0,0,0,0,0,0,0,0,0,0,0,0,0,0,0,0,0,0,0,0,0,0,0,0,0,0,0,0,0,0,0,0,0,0,0,0,0,0,0,0,0,0,0,0,0,0,0,0,0,0,0,0,0,0,0,0,0,0.3548,0.3549,0,0.3588,0.3588,0.3589,0.36,0.36,0.36,0.36,0.3639,0.3641,0.3642,0,0,0,0,0,0,0,0,0,0,0,0,0,0.3479,0.3481,0.3548,0.3549,0.3549,0.3588,0.3588,0.3589,0.36,0.36,0.36,0.36,0.3639,0.364,0.3642,0,0,0,0,0,0,0,0,0,0,0,0,0,0.3513,0.3481,0.3548,0.356,0.3561,0.3588,0.3588,0.3589,0.36,0.36,0.36,0.36,0.3638,0.364,0.3642,0.366,0,0,0.3648,0.3649,0,0,0,0,0,0,0,0,0.3511,0.3516,0.3557,0.3559,0.356,0.3589,0.3579,0.3613,0.3601,0.3585,0.36,0.3599,0.3623,0.3626,0.3634,0.3662,0.3663,0.3648,0.3649,0.365,0.365,0,0,0,0,0,0,0,0.3509,0.3514,0.3564,0.3558,0.356,0.3562,0.3566,0.3585,0.3605,0.3587,0.3588,0.3592,0.3624,0.3632,0.3635,0.3664,0.3648,0.365,0.3651,0.3651,0.3706,0.3706,0,0,0,0,0,0,0.3505,0.3512,0.3563,0.3565,0.3535,0.3563,0.3568,0.358,0.3605,0.3609,0.3592,0.3593,0.3629,0.3633,0.3636,0.3658,0.365,0.3652,0.3653,0.3706,0.3706,0.3706,0,0,0,0,0,0,0.3503,0.3509,0.3561,0.3539,0.3546,0.3565,0.3578,0.3581,0.359,0.361,0.3613,0.3598,0.3629,0.3634,0.3653,0.3659,0.3653,0.3654,0.3705,0.3706,0.3706,0.3701,0,0,0,0,0,0,0.3501,0.3509,0.3516,0.3539,0.3547,0.3578,0.3578,0.3582,0.3593,0.3594,0.3615,0.3619,0.3629,0.3651,0.3655,0.3662,0.3656,0.3705,0.3705,0.3706,0.37,0.3701,0.3701,0,0,0,0,0,0.3499,0.3514,0.3517,0.3523,0.3557,0.3579,0.3583,0.3595,0.3593,0.3601,0.3613,0.3618,0.3658,0.3653,0.3658,0.3665,0.3704,0.3705,0.3706,0.37,0.3701,0.3701,0,0,0,0,0,0,0.3491,0.3517,0.3521,0.3543,0.3559,0.358,0.359,0.3595,0.3611,0.3611,0.3625,0.363,0.3648,0.3658,0.3652,0.3682,0.3681,0.3683,0.3675,0.3676,0.3676,0.3673,0.3657,0,0,0,0,0,0.3492,0.3509,0.353,0.3547,0.3555,0.3571,0.3581,0.3589,0.3605,0.3612,0.3626,0.3641,0.3656,0.3667,0.3682,0.3702,0.3706,0.3709,0.3709,0.371,0.3711,0.372,0.3721,0.3709,0.3709,0.3709,0,0,0.3495,0.351,0.352,0.3546,0.3559,0.3574,0.3577,0.3593,0.3604,0.3614,0.3633,0.3644,0.3661,0.3681,0.369,0.369,0.3715,0.371,0.3711,0.3712,0.3721,0.3722,0.3723,0.3709,0.3709,0.3709,0,0,0.3506,0.352,0.3536,0.3548,0.3568,0.3578,0.3582,0.3602,0.361,0.3629,0.3636,0.3649,0.3676,0.3688,0.3698,0.3711,0.3716,0.3716,0.3718,0.3727,0.3728,0.3729,0.3733,0.3734,0.3717,0.3717,0.3717,0,0.3507,0.3531,0.3543,0.3559,0.357,0.3579,0.3594,0.3605,0.3628,0.3635,0.3634,0.3667,0.368,0.3701,0.3704,0.3712,0.3716,0.3714,0.3727,0.3728,0.3729,0.3733,0.3735,0.3717,0.3717,0.3717,0.3717,0,0.3529,0.3546,0.3556,0.3578,0.3589,0.3605,0.3618,0.3628,0.3634,0.3644,0.3663,0.3678,0.3696,0.3702,0.3709,0.3724,0.3723,0.3725,0.3724,0.373,0.3734,0.3736,0.3717,0.3717,0.3717,0.3717,0,0,0.3539,0.3566,0.3569,0.3579,0.3599,0.3612,0.3627,0.3644,0.3652,0.3667,0.3679,0.3701,0.3702,0.3713,0.3721,0.3728,0.3737,0.3729,0.373,0.3729,0.3753,0.3751,0.3753,0.374,0.374,0.374,0.3751,0,0.3552,0.358,0.359,0.3613,0.3627,0.3635,0.3647,0.3661,0.367,0.3683,0.3693,0.3708,0.3709,0.3715,0.3723,0.3734,0.3741,0.3733,0.375,0.3751,0.3745,0.3755,0.3753,0.3763,0.3753,0.3753,0.3753,0,0.3572,0.3587,0.3611,0.3628,0.3634,0.3646,0.3662,0.3674,0.3689,0.3695,0.3706,0.3713,0.3727,0.3725,0.3745,0.3739,0.3746,0.3752,0.3753,0.3755,0.3752,0.3756,0.3766,0.3768,0.3756,0.3756,0.3755,0,0.3575,0.3601,0.3618,0.3626,0.3647,0.3654,0.3663,0.3678,0.3687,0.3701,0.3707,0.3722,0.373,0.3741,0.3751,0.3749,0.3769,0.3769,0.3774,0.3774,0.3778,0.3778,0.3789,0.3783,0.3783,0.3783,0.3783,0,0.3589,0.3603,0.362,0.363,0.3645,0.3656,0.3671,0.368,0.3692,0.3704,0.3711,0.3722,0.3735,0.3746,0.3754,0.3768,0.3772,0.3777,0.3779,0.3776,0.3775,0.3781,0.378,0.3784,0.3784,0.3783,0.3783,0,0.3595,0.3607,0.3626,0.3644,0.3649,0.3659,0.3674,0.3683,0.3692,0.3707,0.3711,0.3725,0.3739,0.375,0.3768,0.3773,0.3788,0.379,0.3783,0.3784,0.3788,0.3788,0.3803,0.3806,0.3799,0.3799,0.3799,0,0.3603,0.3614,0.3633,0.3641,0.365,0.3663,0.3672,0.3683,0.3693,0.3709,0.3717,0.3731,0.3743,0.3765,0.3776,0.379,0.3792,0.3797,0.3795,0.3791,0.3792,0.3791,0.3791,0.3797,0.3797,0.3797,0.3797,0,0.3615,0.362,0.3634,0.3649,0.366,0.3672,0.3684,0.369,0.3703,0.3713,0.3727,0.3737,0.3755,0.3769,0.3783,0.3792,0.3796,0.3798,0.38,0.3797,0.3792,0.3794,0.3783,0.3798,0.3798,0.3798,0.3797,0.3797,0.3622,0.3631,0.3646,0.366,0.367,0.3681,0.3691,0.3701,0.3713,0.3729,0.3734,0.3749,0.3761,0.3781,0.379,0.38,0.3801,0.3804,0.3804,0.3805,0.3804,0.379,0.3803,0.3803,0.3803,0.3803,0.3803,0,0.3634,0.3643,0.3656,0.3673,0.3684,0.3687,0.37,0.3709,0.3722,0.3734,0.3745,0.3761,0.3774,0.3786,0.3799,0.3805,0.3808,0.3808,0.3808,0.381,0.3803,0.38,0.3806,0.3806,0.3806,0.3806,0.3806,0.3806,0.3642,0.3657,0.3663,0.3683,0.3692,0.3707,0.3714,0.3723,0.3733,0.375,0.3761,0.3769,0.378,0.3794,0.3806,0.3809,0.3813,0.3813,0.3817,0.3811,0.381,0.381,0.3807,0.3814,0.3814,0.3822,0.3822,0.3822]},{"header":{"parameterUnit":"m.s-1","parameterCategory":1,"la1":30.2991,"la2":30.254,"lo1":-89.0895,"lo2":-89.0444,"dy":0.0017,"dx":0.0017,"nx":28,"ny":28,"refTime":"2025-03-22T03:00:00:Z","depth":0,"parameterNumber":3,"parameterNumberName":"V-component_of_WINDS"},"data":[0,0,0,0,0,0,0,0,0,0,0,0,0,0,0,0,0,0,0,0,0,0,0,0,0,0,0,0,0,0,0,0,0,0,0,0,0,0,0,0,0,0,0,0,0,0,0,0,0,0,0,0,0,0,0,0,0,0,4.1403,4.1403,0,4.1418,4.1419,4.1419,4.1341,4.1339,4.1337,4.1335,4.135,4.1352,4.1355,0,0,0,0,0,0,0,0,0,0,0,0,0,4.1305,4.1307,4.1403,4.1403,4.1404,4.1418,4.1419,4.1419,4.1342,4.1339,4.1336,4.1334,4.1349,4.1352,4.1355,0,0,0,0,0,0,0,0,0,0,0,0,0,4.1337,4.1308,4.1403,4.1367,4.1364,4.1418,4.1419,4.1419,4.1342,4.1339,4.1335,4.1332,4.1348,4.1352,4.1355,4.1445,0,0,4.1367,4.1368,0,0,0,0,0,0,0,0,4.1335,4.134,4.1372,4.1369,4.1366,4.1374,4.1389,4.1428,4.1343,4.135,4.1335,4.1331,4.1361,4.1363,4.1373,4.1446,4.1447,4.1367,4.1369,4.1371,4.1372,0,0,0,0,0,0,0,4.1333,4.1339,4.1409,4.1373,4.1369,4.1349,4.135,4.1396,4.1374,4.135,4.1344,4.1347,4.1358,4.137,4.1373,4.1447,4.1367,4.137,4.1373,4.1374,4.159,4.1594,0,0,0,0,0,0,4.1336,4.1338,4.1409,4.141,4.1342,4.1353,4.1354,4.1375,4.1373,4.137,4.135,4.1343,4.1365,4.1369,4.1373,4.1476,4.1371,4.1374,4.1377,4.1587,4.1591,4.1595,0,0,0,0,0,0,4.1334,4.1343,4.1408,4.1372,4.1379,4.1359,4.1383,4.1377,4.1389,4.1374,4.1369,4.1366,4.1363,4.1368,4.1427,4.1475,4.1376,4.138,4.1583,4.1588,4.1593,4.1683,0,0,0,0,0,0,4.1331,4.1343,4.1377,4.1374,4.1381,4.1463,4.1386,4.138,4.1395,4.1387,4.1387,4.1384,4.1361,4.1422,4.1431,4.1479,4.1382,4.1578,4.1585,4.1591,4.1676,4.1691,4.1704,0,0,0,0,0,4.1328,4.1403,4.138,4.1389,4.1424,4.1466,4.147,4.1441,4.14,4.1433,4.1423,4.1384,4.1469,4.1429,4.1438,4.1488,4.1575,4.1583,4.1591,4.167,4.1688,4.1704,0,0,0,0,0,0,4.1414,4.1402,4.1376,4.1452,4.146,4.1452,4.1495,4.1462,4.1483,4.1474,4.1438,4.1438,4.1503,4.1501,4.1457,4.1573,4.1515,4.1525,4.1571,4.1589,4.1603,4.1601,4.1386,0,0,0,0,0,4.1441,4.1476,4.1464,4.1532,4.1538,4.1516,4.1533,4.151,4.1517,4.152,4.1514,4.1522,4.155,4.157,4.1595,4.1676,4.1673,4.1714,4.1728,4.174,4.1749,4.1788,4.1805,4.1621,4.1621,4.1621,0,0,4.1499,4.1497,4.1521,4.1549,4.1553,4.1588,4.1519,4.1561,4.1586,4.1526,4.1581,4.1577,4.1583,4.1653,4.1683,4.1654,4.1799,4.175,4.1759,4.1762,4.1798,4.1815,4.1831,4.1626,4.1625,4.1624,0,0,4.1622,4.1625,4.168,4.1685,4.1691,4.1675,4.1689,4.1685,4.168,4.1734,4.1689,4.1719,4.1769,4.1774,4.1784,4.1906,4.1869,4.1915,4.1988,4.2026,4.2041,4.2053,4.2094,4.211,4.1924,4.1924,4.1924,0,4.1692,4.1745,4.1713,4.1756,4.1768,4.1715,4.177,4.1776,4.179,4.18,4.1766,4.1826,4.1827,4.1895,4.1925,4.1935,4.1947,4.1914,4.2041,4.2054,4.2065,4.2104,4.2119,4.193,4.1929,4.1928,4.1928,0,4.183,4.1866,4.191,4.1924,4.1941,4.1991,4.1965,4.1986,4.1961,4.1949,4.2003,4.2002,4.2025,4.204,4.2017,4.2104,4.2085,4.2048,4.1988,4.2088,4.2124,4.2139,4.1937,4.1935,4.1934,4.1932,0,0,4.2008,4.2001,4.2017,4.2021,4.2023,4.205,4.2096,4.2117,4.2135,4.2147,4.2182,4.2225,4.2189,4.22,4.2177,4.2211,4.2304,4.2168,4.2168,4.2191,4.2397,4.2424,4.2442,4.2281,4.2283,4.2286,4.2396,0,4.2125,4.2202,4.2173,4.2252,4.2284,4.2232,4.2272,4.2276,4.2266,4.229,4.2279,4.2308,4.226,4.2266,4.2298,4.2286,4.2344,4.2278,4.2312,4.2314,4.231,4.2461,4.249,4.2594,4.241,4.2412,4.2414,0,4.2273,4.2288,4.237,4.2362,4.2375,4.2411,4.2426,4.2452,4.2455,4.2444,4.2455,4.2424,4.2467,4.2408,4.2466,4.2421,4.2433,4.243,4.2433,4.2433,4.2368,4.2463,4.2627,4.2642,4.2436,4.2434,4.2432,0,4.239,4.2432,4.2485,4.249,4.2484,4.251,4.2509,4.2509,4.2523,4.2537,4.2545,4.2564,4.2574,4.259,4.2563,4.2524,4.2624,4.2564,4.2615,4.2615,4.2637,4.2635,4.2802,4.2649,4.2648,4.2648,4.2648,0,4.2524,4.2575,4.2537,4.257,4.2625,4.2591,4.2646,4.2639,4.2639,4.2668,4.2626,4.2655,4.262,4.2644,4.2625,4.2673,4.2679,4.2671,4.2664,4.2673,4.2674,4.2679,4.2671,4.2652,4.2651,4.2651,4.265,0,4.2664,4.2641,4.2695,4.2684,4.2682,4.2723,4.2713,4.2742,4.2728,4.2765,4.2772,4.275,4.2777,4.2752,4.2779,4.2765,4.2829,4.2814,4.2828,4.2823,4.2874,4.2868,4.3048,4.3069,4.2905,4.2906,4.2908,0,4.275,4.2787,4.2779,4.2795,4.2796,4.2823,4.2836,4.2804,4.2819,4.2824,4.2852,4.2875,4.2892,4.2937,4.2922,4.2941,4.2925,4.2986,4.2927,4.2934,4.2922,4.292,4.2922,4.2998,4.3,4.3001,4.3003,0,4.2903,4.2889,4.2909,4.2925,4.2941,4.2952,4.296,4.2976,4.2942,4.2961,4.2987,4.3,4.3025,4.3048,4.3062,4.306,4.3025,4.3022,4.3034,4.3042,4.3048,4.3043,4.2858,4.3017,4.3016,4.3015,4.3014,4.3013,4.3016,4.3046,4.3044,4.3067,4.3069,4.3077,4.3102,4.309,4.3111,4.3128,4.3108,4.3139,4.3139,4.3155,4.3157,4.318,4.3154,4.3173,4.3177,4.3182,4.3188,4.3046,4.3183,4.3183,4.3182,4.3182,4.3182,0,4.3165,4.316,4.3182,4.3193,4.321,4.3176,4.3182,4.3199,4.3227,4.3229,4.3246,4.3274,4.3295,4.3282,4.33,4.3321,4.3306,4.3327,4.3324,4.3323,4.3211,4.3198,4.3339,4.3339,4.3339,4.3339,4.3339,4.3339,4.3244,4.3291,4.3277,4.3324,4.3319,4.3348,4.3354,4.336,4.3362,4.3395,4.3412,4.3403,4.3399,4.3416,4.3433,4.3428,4.3436,4.3462,4.3452,4.3347,4.3332,4.3317,4.3304,4.3465,4.3465,4.3562,4.3563,4.3563]}]]